#timestamp,LO_Frequency,Hit,StdDev 
1526871615.1,286046999.1,N
1526871635.8,286046998.4,N
1526871655.7,286046997.1,N
1526871675.5,286046997.7,N
1526871695.4,286046995.3,N
1526871715.2,286046996.5,N
1526871735.0,286046999.5,N
1526871735.9,286046999.5,N
1526871755.8,286046995.7,N
1526871775.6,286046993.5,N
1526871795.4,286046995.0,N
1526871815.3,286046995.0,N
1526871835.1,286046997.6,N
1526871855.9,286046995.5,N
1526871875.7,286046997.4,N
1526871895.5,286046999.4,N
1526871915.4,286046999.2,N
1526871935.2,286046996.6,N
1526871955.0,286046997.3,N
1526871955.9,286046997.3,N
1526871975.8,286046998.0,N
1526871995.6,286046995.7,N
1526872015.5,286046995.5,N
1526872035.3,286046995.0,N
1526872055.1,286046995.6,N
1526872075.9,286046997.6,N
1526872095.7,286046997.2,N
1526872115.5,286046995.2,N
1526872135.4,286046998.0,N
1526872155.2,286046995.7,N
1526872175.1,286046993.9,Y
1526872176.0,286046993.9,P
1526872195.8,286046998.2,N
1526872215.7,286047001.0,N
1526872235.5,286047000.2,N
1526872255.3,286047000.3,N
1526872275.2,286046999.1,N
1526872295.0,286046999.2,N
1526872295.9,286046999.2,N
1526872315.8,286046998.5,N
1526872335.6,286046998.4,N
1526872355.4,286046999.5,N
1526872375.3,286046998.9,N
1526872395.1,286046995.6,N
1526872415.8,286046996.1,N
1526872435.7,286046996.9,N
1526872455.5,286046997.3,N
1526872475.4,286046995.3,N
1526872495.2,286046999.1,N
1526872515.0,286046998.4,N
1526872515.9,286046998.4,N
1526872535.8,286046998.9,N
1526872555.6,286046999.0,N
1526872575.4,286046998.2,N
1526872595.3,286046998.6,N
1526872615.1,286046998.4,N
1526872635.9,286046996.7,N
1526872655.7,286046996.6,N
1526872675.5,286046996.7,N
1526872695.4,286046995.0,Y
1526872715.2,286046999.6,P
1526872735.0,286047002.7,P
1526872735.9,286047002.7,N
1526872755.8,286046998.4,N
1526872775.6,286046998.6,N
1526872795.5,286047001.1,N
1526872815.3,286046998.9,N
1526872835.1,286046998.5,N
1526872855.9,286046999.3,N
1526872875.7,286047000.8,N
1526872895.5,286047001.2,N
1526872915.4,286047001.0,N
1526872935.2,286047000.3,N
1526872955.1,286046998.6,N
1526872956.0,286046998.6,N
1526872975.8,286046998.2,N
1526872995.6,286046999.8,N
1526873015.5,286046998.6,N
1526873035.3,286046996.9,N
1526873055.1,286046996.7,N
1526873075.9,286046995.6,N
1526873095.7,286046997.1,N
1526873115.6,286046997.2,N
1526873135.4,286046999.6,N
1526873155.2,286046996.5,N
1526873175.1,286046997.5,N
1526873176.0,286046997.5,N
1526873195.8,286046998.9,N
1526873215.6,286046999.6,N
1526873235.5,286046997.2,N
1526873255.3,286046997.3,N
1526873275.2,286046998.4,N
1526873295.9,286046996.7,N
1526873315.7,286046996.5,N
1526873335.6,286046998.9,N
1526873355.4,286046998.1,N
1526873375.2,286046998.4,N
1526873395.1,286046998.5,N
1526873396.0,286046998.5,N
1526873415.8,286047000.4,N
1526873435.7,286047000.6,N
1526873455.5,286046998.2,N
1526873475.3,286046997.9,N
1526873495.2,286046997.9,N
1526873515.0,286046997.0,N
1526873515.9,286046997.0,N
1526873535.8,286046997.5,N
1526873555.6,286046996.8,N
1526873575.4,286046998.8,N
1526873595.3,286046999.8,N
1526873615.1,286047002.2,N
1526873635.8,286047000.4,N
1526873655.7,286046998.8,N
1526873675.5,286046996.8,N
1526873695.4,286047011.9,Y
1526873715.2,286047000.0,P
1526873735.0,286047000.0,N
1526873735.9,286047000.0,N
1526873755.8,286047004.1,Y
1526873775.6,286047002.0,P
1526873795.4,286047003.3,N
1526873815.3,286047005.6,P
1526873835.1,286047002.9,N
1526873855.9,286047005.3,N
1526873875.7,286047003.5,N
1526873895.5,286047004.4,N
1526873915.4,286047002.1,N
1526873935.2,286047002.7,N
1526873955.0,286047004.2,N
1526873956.0,286047004.2,N
1526873975.8,286047003.2,N
1526874025.7,286047004.1,E
1526874035.6,286047001.8,N
1526874055.4,286046997.0,P
1526874075.3,286046999.5,N
1526874095.1,286046998.6,N
1526874096.0,286046998.6,N
1526874115.8,286047000.6,N
1526874135.7,286047000.2,N
1526874155.5,286046999.7,N
1526874175.3,286047000.1,N
1526874195.2,286047000.3,N
1526874215.0,286047000.5,N
1526874215.9,286047000.5,N
1526874235.8,286047001.0,N
1526874255.6,286046999.9,N
1526874275.4,286047000.1,N
1526874295.3,286047000.8,N
1526874315.1,286046998.7,N
1526874335.8,286046998.5,N
1526874355.7,286046999.3,N
1526874375.5,286046999.4,N
1526874395.4,286046997.8,N
1526874415.2,286046999.6,N
1526874435.0,286046998.3,N
1526874435.9,286046998.3,N
1526874455.8,286046997.0,N
1526874475.6,286046999.5,N
1526874495.4,286046997.8,N
1526874515.3,286046996.6,N
1526874535.1,286046999.0,N
1526874555.9,286046996.6,N
1526874575.7,286046997.3,N
1526874595.5,286046995.0,Y
1526874615.4,286046997.2,P
1526874635.2,286046999.0,N
1526874655.0,286047001.2,N
1526874656.0,286047001.2,N
1526874675.8,286046998.2,N
1526874695.6,286047001.0,N
1526874715.5,286046998.8,N
1526874735.3,286046999.7,N
1526874755.1,286046998.5,N
1526874775.9,286046996.9,N
1526874795.7,286047002.4,N
1526874815.5,286047000.1,N
1526874835.4,286046998.9,N
1526874855.2,286047001.0,N
1526874875.1,286047002.2,N
1526874876.0,286047002.2,N
1526874895.8,286047004.4,N
1526874915.6,286047004.2,N
1526874935.5,286046999.7,N
1526874955.3,286047001.9,N
1526874975.2,286047001.3,N
1526874995.9,286047002.1,N
1526875015.7,286047000.0,N
1526875035.6,286047000.4,N
1526875055.4,286047000.4,N
1526875075.2,286047000.7,N
1526875095.1,286047000.0,N
1526875096.0,286047000.0,N
1526875115.8,286047000.0,N
1526875135.7,286046999.7,N
1526875155.5,286047000.9,N
1526875175.3,286047000.6,N
1526875195.2,286046998.6,N
